Flag for Germany Weather past 2 weeks in Remscheid, North Rhine-Westphalia, Germany

Now
43 °F

Passing clouds.


Feels Like: 37 °F
Forecast: 32 / 50 °F
Wind: 10 mph from West

Location: Duesseldorf

Current Time: Mar 27, 2015 at 3:37:24 AM

Latest Report: Mar 27, 2015 at 3:20 AM


Visibility: N/A

Pressure: 29.83 "Hg

Humidity: 81%

Dew point: 37 °F

Location of RemscheidLocation

Historic Weather in Remscheid — Graph

°F

Remscheid temperature yesterday

Maximum temperature yesterday: 48 °F (at 1:20 PM)
Minimum temperature yesterday: 41 °F (at 4:20 AM)
Average temperature yesterday: 43 °F

Past Weeks' High & Low Weather Summary

 TemperatureHumidityPressure
High64 °F (Mar 17, 1:50 PM)100% (Mar 20, 2:50 AM)30.48 "Hg (Mar 20, 2:50 AM)
Low28 °F (Mar 12, 2:50 AM)32% (Mar 17, 4:20 PM)29.65 "Hg (Mar 25, 1:20 AM)
Average43 °F76%30.14 "Hg
* Reported Mar 12 2:20 AM — Mar 27 2:20 AM, Remscheid, Weather by CustomWeather, © 2015

Note: Actual official high and low records may vary slightly from our data, if they occured in-between our weather recording intervals... More about our weather records

Advertising

Remscheid weather history for previous 24 hours

 ConditionsComfort  
Time TempWeatherWind HumidityBarometerVisibility
2:20 AM
Fri, Mar 27
45 °FPassing clouds.13 mph81%29.83 "HgN/A
1:50 AM43 °FPassing clouds.10 mph87%29.83 "HgN/A
1:20 AM43 °FClear.8 mph93%29.80 "Hg10 mi
12:50 AM41 °FPassing clouds.7 mph93%29.80 "HgN/A
12:20 AM43 °FPassing clouds.7 mph93%29.80 "HgN/A
11:50 PM
Thu, Mar 26
43 °FPassing clouds.8 mph93%29.77 "HgN/A
11:20 PM45 °FPassing clouds.8 mph87%29.77 "HgN/A
10:50 PM43 °FPassing clouds.8 mph93%29.77 "HgN/A
10:20 PM43 °FPassing clouds.9 mph93%29.77 "HgN/A
9:50 PM43 °FPassing clouds.10 mph87%29.74 "HgN/A
9:20 PM43 °FPassing clouds.13 mph87%29.74 "HgN/A
8:50 PM41 °FPassing clouds.13 mph93%29.74 "Hg6 mi
8:20 PM41 °FLight rain. Overcast.13 mph93%29.74 "Hg5 mi
7:50 PM41 °FLight rain. Mostly cloudy.13 mph93%29.74 "Hg6 mi
7:20 PM41 °FLight rain. Passing clouds.13 mph87%29.74 "HgN/A
6:50 PM41 °FDrizzle. Cloudy.16 mph87%29.74 "HgN/A
6:20 PM41 °FDrizzle. Cloudy.15 mph81%29.74 "HgN/A
5:50 PM41 °FDrizzle. Cloudy.17 mph81%29.74 "Hg6 mi
5:20 PM43 °FLight rain. Broken clouds.18 mph71%29.74 "HgN/A
4:50 PM43 °FLight rain. Broken clouds.17 mph71%29.74 "HgN/A
4:20 PM43 °FLight rain. Mostly cloudy.21 mph71%29.74 "HgN/A
3:50 PM45 °FLight rain. Mostly cloudy.18 mph66%29.71 "HgN/A
3:20 PM45 °FLight rain. Broken clouds.15 mph61%29.71 "HgN/A
2:50 PM48 °FBroken clouds.10 mph50%29.71 "HgN/A
2:20 PM48 °FBroken clouds.10 mph54%29.74 "HgN/A
1:50 PM48 °FBroken clouds.10 mph54%29.74 "HgN/A
1:20 PM48 °FBroken clouds.10 mph54%29.74 "HgN/A
12:50 PM46 °FBroken clouds.9 mph57%29.77 "HgN/A
12:20 PM46 °FPartly sunny.12 mph62%29.77 "HgN/A
11:50 AM46 °FPartly sunny.10 mph62%29.77 "HgN/A
11:20 AM45 °FPartly sunny.12 mph61%29.80 "HgN/A
10:50 AM45 °FBroken clouds.12 mph66%29.80 "HgN/A
10:20 AM45 °FBroken clouds.10 mph66%29.80 "HgN/A
9:50 AM43 °FBroken clouds.7 mph71%29.80 "HgN/A
9:20 AM43 °FPartly sunny.7 mph81%29.80 "HgN/A
8:50 AM41 °FPartly sunny.7 mph87%29.80 "HgN/A
8:20 AM41 °FPartly sunny.7 mph81%29.80 "HgN/A
7:50 AM41 °FPartly sunny.8 mph87%29.80 "HgN/A
7:20 AM41 °FPartly sunny.8 mph81%29.80 "HgN/A
6:50 AM41 °FPartly sunny.6 mph87%29.80 "HgN/A
6:20 AM41 °FPassing clouds.6 mph87%29.80 "HgN/A
5:50 AM41 °FPassing clouds.6 mph87%29.80 "HgN/A
5:20 AM41 °FPartly cloudy.8 mph87%29.80 "HgN/A
4:50 AM41 °FPartly cloudy.7 mph87%29.80 "HgN/A
4:20 AM41 °FPassing clouds.5 mph87%29.77 "HgN/A
3:20 AM43 °FPartly cloudy.7 mph87%29.77 "Hg4 mi
Weather by CustomWeather, © 2015

See weather overviewHow to use our weather pages